Home   Weather   Zaragoza   Past weeks

Flag for Spain Past Weather in Zaragoza, Spain — Yesterday and Last 2 Weeks

52 °F


Feels Like: 52 °F
Forecast: 58 / 72 °F
Wind: 2 mph from Northwest

Location: Zaragoza / Aeropuerto

Current Time: Oct 22, 2016 at 7:23:30 AM

Latest Report: Oct 22, 2016 at 6:30 AM

Visibility: 5 mi

Pressure: 29.89 "Hg

Humidity: 94%

Dew Point: 50 °F

Location of ZaragozaLocation

Past Weather in Zaragoza — Graph


Zaragoza Temperature Yesterday

Maximum temperature yesterday: 64 °F (at 5:30 PM)
Minimum temperature yesterday: 43 °F (at 7:30 AM)
Average temperature yesterday: 53 °F

High & Low Weather Summary for the Past Weeks

High81 °F (Oct 7, 6:00 PM)100% (Oct 12, 11:00 PM)30.30 "Hg (Oct 12, 11:00 PM)
Low43 °F (Oct 21, 7:30 AM)25% (Oct 10, 5:00 PM)29.53 "Hg (Oct 13, 5:30 PM)
Average60 °F66%29.99 "Hg
* Reported Oct 7 6:00 AM — Oct 22 6:00 AM, Zaragoza, Weather by CustomWeather, © 2016

Note: Actual official high and low records may vary slightly from our data, if they occured in-between our weather recording intervals... More about our weather records


Zaragoza Weather History for the Previous 24 Hours

Scroll right to see more
Time TempWeatherWind HumidityBarometerVisibility
6:00 AM
Sat, Oct 22
52 °FOvercast.1 mph94%29.89 "HgN/A
5:30 AM52 °FOvercast.1 mph94%29.89 "HgN/A
5:00 AM50 °FLight rain. Passing clouds.No wind94%29.89 "Hg6 mi
4:30 AM50 °FRain. Passing clouds.5 mph94%29.89 "Hg4 mi
4:00 AM54 °FLight rain. Partly cloudy.8 mph77%29.92 "HgN/A
3:30 AM54 °FPartly cloudy.1 mph72%29.92 "HgN/A
3:00 AM54 °FPartly cloudy.2 mph67%29.92 "HgN/A
2:00 AM54 °FPassing clouds.No wind67%29.92 "HgN/A
1:30 AM54 °FPassing clouds.3 mph67%29.95 "HgN/A
1:00 AM54 °FPassing clouds.3 mph67%29.95 "HgN/A
12:30 AM54 °FPassing clouds.3 mph67%29.95 "HgN/A
12:00 AM54 °FPassing clouds.2 mph63%29.95 "HgN/A
11:30 PM
Fri, Oct 21
54 °FPassing clouds.3 mph63%29.95 "HgN/A
11:00 PM54 °FPassing clouds.3 mph63%29.95 "HgN/A
10:30 PM54 °FPassing clouds.6 mph67%29.95 "HgN/A
10:00 PM55 °FPassing clouds.5 mph63%29.95 "HgN/A
9:30 PM55 °FClear.1 mph59%29.95 "Hg10 mi
9:00 PM55 °FPassing clouds.5 mph59%29.95 "HgN/A
8:30 PM55 °FPassing clouds.5 mph55%29.95 "HgN/A
8:00 PM57 °FClear.5 mph51%29.95 "Hg10 mi
7:30 PM59 °FPassing clouds.6 mph45%29.92 "HgN/A
7:00 PM61 °FPassing clouds.5 mph45%29.92 "HgN/A
6:30 PM63 °FPassing clouds.3 mph39%29.92 "HgN/A
6:00 PM63 °FPassing clouds.1 mph39%29.92 "HgN/A
5:30 PM64 °FPassing clouds.No wind34%29.92 "HgN/A
5:00 PM61 °FPassing clouds.2 mph39%29.92 "HgN/A
4:30 PM63 °FPassing clouds.5 mph37%29.95 "HgN/A
4:00 PM63 °FPassing clouds.5 mph39%29.95 "HgN/A
3:30 PM63 °FSunny.3 mph39%29.95 "Hg10 mi
3:00 PM61 °FPassing clouds.5 mph42%29.98 "HgN/A
2:30 PM59 °FPassing clouds.7 mph48%29.98 "HgN/A
2:00 PM59 °FPassing clouds.8 mph45%29.98 "HgN/A
1:30 PM59 °FPassing clouds.10 mph45%30.01 "HgN/A
1:00 PM57 °FPassing clouds.12 mph48%30.01 "HgN/A
12:30 PM55 °FPassing clouds.12 mph55%30.01 "HgN/A
12:00 PM55 °FPassing clouds.12 mph55%30.01 "HgN/A
11:30 AM54 °FPassing clouds.6 mph58%30.04 "HgN/A
11:00 AM52 °FPassing clouds.5 mph62%30.04 "HgN/A
10:30 AM50 °FPassing clouds.6 mph67%30.01 "HgN/A
10:00 AM48 °FSunny.7 mph71%30.01 "Hg10 mi
9:30 AM46 °FSunny.7 mph76%30.01 "Hg10 mi
9:00 AM45 °FPassing clouds.7 mph81%30.01 "HgN/A
8:30 AM43 °FSunny.8 mph81%30.01 "Hg10 mi
8:00 AM43 °FClear.7 mph81%30.01 "Hg10 mi
7:30 AM43 °FClear.7 mph87%29.98 "Hg10 mi
7:00 AM45 °FClear.7 mph76%29.98 "Hg10 mi
Weather by CustomWeather, © 2016

See weather overviewHow to use our weather pages